Time,TemperatureF,DewpointF,PressureIn,WindDirection,WindDirectionDegrees,WindSpeedMPH,WindSpeedGustMPH,Humidity,HourlyPrecipIn,Conditions,Clouds,dailyrainin,SoftwareType,DateUTC
2013-04-14 00:01:00,48.0,45.0,-100.00,East,86,4.0,5.0,89,-99.99,,,-99.99,,2013-04-14 07:01:00,
2013-04-14 00:11:00,47.0,45.0,-100.00,East,98,4.0,5.0,94,-99.99,,,-99.99,,2013-04-14 07:11:00,
2013-04-14 00:22:00,46.0,44.0,-100.00,ESE,109,4.0,6.0,93,-99.99,,,-99.99,,2013-04-14 07:22:00,
2013-04-14 00:32:00,47.0,43.0,-100.00,ESE,118,4.0,5.0,86,-99.99,,,-99.99,,2013-04-14 07:32:00,
2013-04-14 00:42:00,48.0,42.0,-100.00,East,98,4.0,5.0,79,-99.99,,,-99.99,,2013-04-14 07:42:00,
2013-04-14 00:52:00,45.0,43.0,-100.00,SE,130,4.0,4.0,91,-99.99,,,-99.99,,2013-04-14 07:52:00,
2013-04-14 01:01:00,45.0,43.0,-100.00,SE,130,4.0,4.0,91,-99.99,,,-99.99,,2013-04-14 08:01:00,
2013-04-14 01:12:00,45.0,41.0,-100.00,NW,319,2.0,3.0,87,-99.99,,,-99.99,,2013-04-14 08:12:00,
2013-04-14 01:22:00,45.0,41.0,-100.00,ESE,119,2.0,5.0,86,-99.99,,,-99.99,,2013-04-14 08:22:00,
2013-04-14 01:32:00,45.0,42.0,-100.00,SE,142,3.0,6.0,88,-99.99,,,-99.99,,2013-04-14 08:32:00,
2013-04-14 01:42:00,44.0,42.0,-100.00,SE,144,5.0,7.0,94,-99.99,,,-99.99,,2013-04-14 08:42:00,
2013-04-14 01:52:00,44.0,43.0,-100.00,SE,136,6.0,8.0,96,-99.99,,,-99.99,,2013-04-14 08:52:00,
2013-04-14 02:02:00,45.0,44.0,-100.00,SE,128,6.0,9.0,97,-99.99,,,-99.99,,2013-04-14 09:02:00,
2013-04-14 02:12:00,45.0,44.0,-100.00,ESE,111,6.0,9.0,97,-99.99,,,-99.99,,2013-04-14 09:12:00,
2013-04-14 02:22:00,45.0,44.0,-100.00,ESE,108,5.0,8.0,98,-99.99,,,-99.99,,2013-04-14 09:22:00,
2013-04-14 02:32:00,45.0,44.0,-100.00,ESE,109,5.0,7.0,98,-99.99,,,-99.99,,2013-04-14 09:32:00,
2013-04-14 02:42:00,45.0,44.0,-100.00,ESE,123,4.0,6.0,98,-99.99,,,-99.99,,2013-04-14 09:42:00,
2013-04-14 02:53:00,45.0,44.0,-100.00,SE,127,4.0,7.0,98,-99.99,,,-99.99,,2013-04-14 09:53:00,
2013-04-14 03:02:00,45.0,44.0,-100.00,SE,140,5.0,9.0,98,-99.99,,,-99.99,,2013-04-14 10:02:00,
2013-04-14 03:12:00,45.0,44.0,-100.00,SSE,150,6.0,9.0,98,-99.99,,,-99.99,,2013-04-14 10:12:00,
2013-04-14 03:22:00,45.0,44.0,-100.00,SE,144,7.0,8.0,98,-99.99,,,-99.99,,2013-04-14 10:22:00,
2013-04-14 03:32:00,44.0,43.0,-100.00,SE,133,5.0,8.0,98,-99.99,,,-99.99,,2013-04-14 10:32:00,
2013-04-14 03:42:00,44.0,44.0,-100.00,SE,137,6.0,7.0,99,-99.99,,,-99.99,,2013-04-14 10:42:00,
2013-04-14 04:02:00,44.0,44.0,-100.00,SE,124,3.0,5.0,99,-99.99,,,-99.99,,2013-04-14 11:02:00,
2013-04-14 04:12:00,44.0,44.0,-100.00,SE,125,3.0,6.0,99,-99.99,,,-99.99,,2013-04-14 11:12:00,
2013-04-14 04:22:00,44.0,44.0,-100.00,ESE,103,2.0,4.0,99,-99.99,,,-99.99,,2013-04-14 11:22:00,
2013-04-14 04:42:00,43.0,43.0,-100.00,ESE,120,2.0,4.0,99,-99.99,,,-99.99,,2013-04-14 11:42:00,
2013-04-14 04:52:00,43.0,43.0,-100.00,ESE,121,2.0,5.0,99,-99.99,,,-99.99,,2013-04-14 11:52:00,
2013-04-14 05:02:00,43.0,43.0,-100.00,ESE,113,3.0,4.0,99,-99.99,,,-99.99,,2013-04-14 12:02:00,
2013-04-14 05:12:00,43.0,43.0,-100.00,SE,127,3.0,4.0,99,-99.99,,,-99.99,,2013-04-14 12:12:00,
2013-04-14 05:21:00,43.0,43.0,-100.00,SE,134,3.0,7.0,99,-99.99,,,-99.99,,2013-04-14 12:21:00,
2013-04-14 05:32:00,43.0,43.0,-100.00,SE,134,2.0,5.0,99,-99.99,,,-99.99,,2013-04-14 12:32:00,
2013-04-14 05:42:00,43.0,43.0,-100.00,SE,134,3.0,5.0,99,-99.99,,,-99.99,,2013-04-14 12:42:00,
2013-04-14 05:51:00,43.0,43.0,-100.00,SSE,159,3.0,5.0,99,-99.99,,,-99.99,,2013-04-14 12:51:00,
2013-04-14 06:02:00,43.0,43.0,-100.00,SE,145,3.0,4.0,99,-99.99,,,-99.99,,2013-04-14 13:02:00,
2013-04-14 06:12:00,43.0,43.0,-100.00,SE,141,3.0,3.0,99,-99.99,,,-99.99,,2013-04-14 13:12:00,
2013-04-14 06:22:00,43.0,43.0,-100.00,SE,127,2.0,3.0,99,-99.99,,,-99.99,,2013-04-14 13:22:00,
2013-04-14 06:32:00,43.0,43.0,-100.00,ESE,107,2.0,4.0,99,-99.99,,,-99.99,,2013-04-14 13:32:00,
2013-04-14 06:42:00,43.0,43.0,-100.00,ESE,115,2.0,5.0,99,-99.99,,,-99.99,,2013-04-14 13:42:00,
2013-04-14 06:52:00,42.0,42.0,-100.00,ESE,117,3.0,5.0,99,-99.99,,,-99.99,,2013-04-14 13:52:00,
2013-04-14 07:02:00,42.0,42.0,-100.00,ESE,123,3.0,5.0,99,-99.99,,,-99.99,,2013-04-14 14:02:00,
2013-04-14 07:12:00,42.0,42.0,-100.00,ESE,117,3.0,4.0,99,-99.99,,,-99.99,,2013-04-14 14:12:00,
2013-04-14 07:22:00,42.0,42.0,-100.00,South,172,3.0,3.0,99,-99.99,,,-99.99,,2013-04-14 14:22:00,
2013-04-14 07:32:00,43.0,43.0,-100.00,SSE,161,2.0,4.0,99,-99.99,,,-99.99,,2013-04-14 14:32:00,
2013-04-14 07:42:00,43.0,43.0,-100.00,SSE,153,2.0,3.0,99,-99.99,,,-99.99,,2013-04-14 14:42:00,
2013-04-14 07:52:00,43.0,43.0,-100.00,SE,131,1.0,5.0,99,-99.99,,,-99.99,,2013-04-14 14:52:00,
2013-04-14 08:02:00,44.0,44.0,-100.00,SSE,147,2.0,4.0,99,-99.99,,,-99.99,,2013-04-14 15:02:00,
2013-04-14 08:12:00,44.0,43.0,-100.00,ESE,121,2.0,6.0,98,-99.99,,,-99.99,,2013-04-14 15:12:00,
2013-04-14 08:22:00,44.0,43.0,-100.00,SSE,159,3.0,7.0,98,-99.99,,,-99.99,,2013-04-14 15:22:00,
2013-04-14 08:33:00,45.0,44.0,-100.00,South,178,3.0,6.0,96,-99.99,,,-99.99,,2013-04-14 15:33:00,
2013-04-14 08:43:00,46.0,44.0,-100.00,South,178,3.0,8.0,93,-99.99,,,-99.99,,2013-04-14 15:43:00,
2013-04-14 08:52:00,46.0,43.0,-100.00,South,172,4.0,9.0,90,-99.99,,,-99.99,,2013-04-14 15:52:00,
2013-04-14 09:03:00,47.0,43.0,-100.00,SSE,157,5.0,7.0,87,-99.99,,,-99.99,,2013-04-14 16:03:00,
2013-04-14 09:13:00,47.0,43.0,-100.00,SSW,192,5.0,7.0,85,-99.99,,,-99.99,,2013-04-14 16:13:00,
2013-04-14 09:22:00,48.0,43.0,-100.00,South,173,4.0,10.0,83,-99.99,,,-99.99,,2013-04-14 16:22:00,
2013-04-14 09:32:00,49.0,43.0,-100.00,SSE,160,5.0,8.0,81,-99.99,,,-99.99,,2013-04-14 16:32:00,
2013-04-14 09:43:00,50.0,44.0,-100.00,South,172,5.0,9.0,81,-99.99,,,-99.99,,2013-04-14 16:43:00,
2013-04-14 09:52:00,50.0,44.0,-100.00,South,171,4.0,9.0,79,-99.99,,,-99.99,,2013-04-14 16:52:00,
2013-04-14 10:02:00,51.0,44.0,-100.00,South,173,6.0,11.0,77,-99.99,,,-99.99,,2013-04-14 17:02:00,
2013-04-14 10:12:00,51.0,44.0,-100.00,South,174,6.0,11.0,76,-99.99,,,-99.99,,2013-04-14 17:12:00,
2013-04-14 10:22:00,52.0,44.0,-100.00,South,191,6.0,10.0,74,-99.99,,,-99.99,,2013-04-14 17:22:00,
2013-04-14 10:32:00,53.0,44.0,-100.00,South,176,6.0,13.0,71,-99.99,,,-99.99,,2013-04-14 17:32:00,
2013-04-14 10:42:00,53.0,43.0,-100.00,SSE,159,8.0,11.0,69,-99.99,,,-99.99,,2013-04-14 17:42:00,
2013-04-14 10:52:00,54.0,44.0,-100.00,SSE,165,7.0,11.0,68,-99.99,,,-99.99,,2013-04-14 17:52:00,
2013-04-14 11:02:00,54.0,43.0,-100.00,South,170,6.0,11.0,66,-99.99,,,-99.99,,2013-04-14 18:02:00,
2013-04-14 11:12:00,55.0,44.0,-100.00,South,172,7.0,13.0,66,-99.99,,,-99.99,,2013-04-14 18:12:00,
2013-04-14 11:22:00,56.0,45.0,-100.00,SW,222,6.0,11.0,66,-99.99,,,-99.99,,2013-04-14 18:22:00,
2013-04-14 11:32:00,58.0,46.0,-100.00,WSW,248,4.0,6.0,65,-99.99,,,-99.99,,2013-04-14 18:32:00,
2013-04-14 11:42:00,57.0,46.0,-100.00,WNW,303,3.0,9.0,67,-99.99,,,-99.99,,2013-04-14 18:42:00,
2013-04-14 11:52:00,55.0,46.0,-100.00,WNW,297,5.0,10.0,71,-99.99,,,-99.99,,2013-04-14 18:52:00,
2013-04-14 12:02:00,56.0,46.0,-100.00,WNW,289,5.0,10.0,70,-99.99,,,-99.99,,2013-04-14 19:02:00,
2013-04-14 12:12:00,56.0,46.0,-100.00,WNW,301,5.0,13.0,69,-99.99,,,-99.99,,2013-04-14 19:12:00,
2013-04-14 12:22:00,56.0,46.0,-100.00,WNW,297,5.0,11.0,69,-99.99,,,-99.99,,2013-04-14 19:22:00,
2013-04-14 12:32:00,56.0,46.0,-100.00,WNW,302,6.0,12.0,69,-99.99,,,-99.99,,2013-04-14 19:32:00,
2013-04-14 12:42:00,55.0,45.0,-100.00,WNW,290,6.0,11.0,70,-99.99,,,-99.99,,2013-04-14 19:42:00,
2013-04-14 12:52:00,55.0,46.0,-100.00,NW,310,6.0,12.0,71,-99.99,,,-99.99,,2013-04-14 19:52:00,
2013-04-14 13:02:00,55.0,46.0,-100.00,NW,307,7.0,13.0,71,-99.99,,,-99.99,,2013-04-14 20:02:00,
2013-04-14 13:12:00,55.0,46.0,-100.00,WNW,288,6.0,10.0,71,-99.99,,,-99.99,,2013-04-14 20:12:00,
2013-04-14 13:21:00,55.0,46.0,-100.00,NW,310,5.0,14.0,72,-99.99,,,-99.99,,2013-04-14 20:21:00,
2013-04-14 13:32:00,56.0,47.0,-100.00,WNW,301,6.0,11.0,71,-99.99,,,-99.99,,2013-04-14 20:32:00,
2013-04-14 13:42:00,56.0,46.0,-100.00,WNW,299,6.0,10.0,70,-99.99,,,-99.99,,2013-04-14 20:42:00,
2013-04-14 13:52:00,56.0,46.0,-100.00,WNW,301,5.0,11.0,70,-99.99,,,-99.99,,2013-04-14 20:52:00,
2013-04-14 14:02:00,55.0,46.0,-100.00,WNW,298,6.0,11.0,71,-99.99,,,-99.99,,2013-04-14 21:02:00,
2013-04-14 14:12:00,56.0,46.0,-100.00,NW,304,5.0,11.0,70,-99.99,,,-99.99,,2013-04-14 21:12:00,
2013-04-14 14:22:00,56.0,46.0,-100.00,WNW,289,6.0,11.0,69,-99.99,,,-99.99,,2013-04-14 21:22:00,
2013-04-14 14:32:00,56.0,46.0,-100.00,WNW,303,5.0,11.0,70,-99.99,,,-99.99,,2013-04-14 21:32:00,
2013-04-14 14:43:00,56.0,46.0,-100.00,WNW,301,5.0,10.0,70,-99.99,,,-99.99,,2013-04-14 21:43:00,
2013-04-14 14:53:00,57.0,47.0,-100.00,WNW,299,6.0,10.0,69,-99.99,,,-99.99,,2013-04-14 21:53:00,
2013-04-14 15:02:00,57.0,46.0,-100.00,WNW,293,6.0,11.0,67,-99.99,,,-99.99,,2013-04-14 22:02:00,
2013-04-14 15:12:00,57.0,47.0,-100.00,NW,304,6.0,14.0,68,-99.99,,,-99.99,,2013-04-14 22:12:00,
2013-04-14 15:22:00,56.0,46.0,-100.00,NW,312,6.0,13.0,69,-99.99,,,-99.99,,2013-04-14 22:22:00,
2013-04-14 15:32:00,56.0,46.0,-100.00,NW,307,7.0,13.0,69,-99.99,,,-99.99,,2013-04-14 22:32:00,
2013-04-14 15:43:00,56.0,47.0,-100.00,NW,304,6.0,12.0,71,-99.99,,,-99.99,,2013-04-14 22:43:00,
2013-04-14 15:52:00,55.0,46.0,-100.00,NW,309,7.0,13.0,72,-99.99,,,-99.99,,2013-04-14 22:52:00,
2013-04-14 16:02:00,54.0,46.0,-100.00,West,280,8.0,12.0,75,-99.99,,,-99.99,,2013-04-14 23:02:00,
2013-04-14 16:12:00,53.0,46.0,-100.00,WNW,294,6.0,13.0,78,-99.99,,,-99.99,,2013-04-14 23:12:00,
2013-04-14 16:22:00,51.0,46.0,-100.00,WNW,296,7.0,11.0,82,-99.99,,,-99.99,,2013-04-14 23:22:00,
2013-04-14 16:32:00,51.0,47.0,-100.00,WNW,288,6.0,10.0,85,-99.99,,,-99.99,,2013-04-14 23:32:00,
2013-04-14 16:42:00,50.0,47.0,-100.00,WNW,297,5.0,11.0,89,-99.99,,,-99.99,,2013-04-14 23:42:00,
2013-04-14 16:52:00,49.0,46.0,-100.00,WNW,302,5.0,11.0,91,-99.99,,,-99.99,,2013-04-14 23:52:00,
2013-04-14 17:01:00,48.0,46.0,-100.00,WNW,293,5.0,9.0,93,-99.99,,,-99.99,,2013-04-15 00:01:00,
2013-04-14 17:12:00,48.0,46.0,-100.00,WNW,302,5.0,7.0,94,-99.99,,,-99.99,,2013-04-15 00:12:00,
2013-04-14 17:22:00,48.0,47.0,-100.00,NW,305,4.0,8.0,95,-99.99,,,-99.99,,2013-04-15 00:22:00,
2013-04-14 17:32:00,48.0,47.0,-100.00,NW,307,4.0,8.0,95,-99.99,,,-99.99,,2013-04-15 00:32:00,
2013-04-14 17:42:00,47.0,46.0,-100.00,WNW,299,4.0,7.0,96,-99.99,,,-99.99,,2013-04-15 00:42:00,
2013-04-14 17:52:00,47.0,46.0,-100.00,NW,304,3.0,5.0,96,-99.99,,,-99.99,,2013-04-15 00:52:00,
2013-04-14 18:02:00,47.0,46.0,-100.00,WNW,303,3.0,6.0,97,-99.99,,,-99.99,,2013-04-15 01:02:00,
2013-04-14 18:12:00,47.0,46.0,-100.00,WNW,300,3.0,5.0,97,-99.99,,,-99.99,,2013-04-15 01:12:00,
2013-04-14 18:22:00,47.0,46.0,-100.00,WNW,303,2.0,4.0,97,-99.99,,,-99.99,,2013-04-15 01:22:00,
2013-04-14 18:32:00,47.0,46.0,-100.00,NW,309,2.0,5.0,97,-99.99,,,-99.99,,2013-04-15 01:32:00,
2013-04-14 18:42:00,47.0,46.0,-100.00,NNW,329,2.0,4.0,97,-99.99,,,-99.99,,2013-04-15 01:42:00,
2013-04-14 18:52:00,47.0,46.0,-100.00,NW,311,2.0,5.0,97,-99.99,,,-99.99,,2013-04-15 01:52:00,
2013-04-14 19:02:00,48.0,47.0,-100.00,NW,310,3.0,6.0,97,-99.99,,,-99.99,,2013-04-15 02:02:00,
2013-04-14 19:12:00,47.0,46.0,-100.00,NW,313,3.0,8.0,97,-99.99,,,-99.99,,2013-04-15 02:12:00,
2013-04-14 19:22:00,47.0,46.0,-100.00,NW,306,4.0,7.0,97,-99.99,,,-99.99,,2013-04-15 02:22:00,
2013-04-14 19:32:00,47.0,46.0,-100.00,NW,306,4.0,7.0,97,-99.99,,,-99.99,,2013-04-15 02:32:00,
2013-04-14 19:42:00,47.0,46.0,-100.00,WNW,298,3.0,5.0,98,-99.99,,,-99.99,,2013-04-15 02:42:00,
2013-04-14 19:52:00,47.0,46.0,-100.00,NW,311,3.0,6.0,98,-99.99,,,-99.99,,2013-04-15 02:52:00,
2013-04-14 20:02:00,46.0,45.0,-100.00,WNW,303,4.0,6.0,98,-99.99,,,-99.99,,2013-04-15 03:02:00,
2013-04-14 20:12:00,46.0,45.0,-100.00,WNW,300,3.0,6.0,98,-99.99,,,-99.99,,2013-04-15 03:12:00,
2013-04-14 20:22:00,46.0,45.0,-100.00,WNW,298,3.0,5.0,98,-99.99,,,-99.99,,2013-04-15 03:22:00,
2013-04-14 20:32:00,46.0,45.0,-100.00,WNW,296,3.0,5.0,98,-99.99,,,-99.99,,2013-04-15 03:32:00,
2013-04-14 20:43:00,46.0,45.0,-100.00,WNW,297,3.0,6.0,98,-99.99,,,-99.99,,2013-04-15 03:43:00,
2013-04-14 20:53:00,46.0,45.0,-100.00,WNW,297,3.0,6.0,98,-99.99,,,-99.99,,2013-04-15 03:53:00,
2013-04-14 21:02:00,46.0,45.0,-100.00,WNW,297,3.0,6.0,98,-99.99,,,-99.99,,2013-04-15 04:02:00,
2013-04-14 21:12:00,46.0,46.0,-100.00,WNW,294,2.0,4.0,99,-99.99,,,-99.99,,2013-04-15 04:12:00,
2013-04-14 21:22:00,46.0,46.0,-100.00,WSW,251,2.0,4.0,99,-99.99,,,-99.99,,2013-04-15 04:22:00,
2013-04-14 21:33:00,46.0,46.0,-100.00,SW,220,2.0,2.0,99,-99.99,,,-99.99,,2013-04-15 04:33:00,
2013-04-14 21:42:00,46.0,46.0,-100.00,WSW,245,1.0,3.0,99,-99.99,,,-99.99,,2013-04-15 04:42:00,
2013-04-14 21:52:00,46.0,46.0,-100.00,WSW,257,1.0,4.0,99,-99.99,,,-99.99,,2013-04-15 04:52:00,
2013-04-14 22:02:00,46.0,46.0,-100.00,WNW,296,1.0,4.0,99,-99.99,,,-99.99,,2013-04-15 05:02:00,
2013-04-14 22:12:00,46.0,46.0,-100.00,WNW,294,2.0,5.0,99,-99.99,,,-99.99,,2013-04-15 05:12:00,
2013-04-14 22:22:00,46.0,46.0,-100.00,WNW,292,2.0,4.0,99,-99.99,,,-99.99,,2013-04-15 05:22:00,
2013-04-14 22:32:00,46.0,46.0,-100.00,WNW,297,2.0,4.0,99,-99.99,,,-99.99,,2013-04-15 05:32:00,
2013-04-14 22:42:00,46.0,46.0,-100.00,WNW,294,2.0,6.0,99,-99.99,,,-99.99,,2013-04-15 05:42:00,
2013-04-14 22:52:00,46.0,46.0,-100.00,WNW,297,3.0,5.0,99,-99.99,,,-99.99,,2013-04-15 05:52:00,
2013-04-14 23:01:00,46.0,46.0,-100.00,NW,306,2.0,5.0,99,-99.99,,,-99.99,,2013-04-15 06:01:00,
2013-04-14 23:12:00,46.0,46.0,-100.00,WNW,295,3.0,5.0,99,-99.99,,,-99.99,,2013-04-15 06:12:00,
2013-04-14 23:22:00,46.0,46.0,-100.00,NW,305,3.0,4.0,99,-99.99,,,-99.99,,2013-04-15 06:22:00,
2013-04-14 23:32:00,45.0,45.0,-100.00,NW,320,2.0,3.0,99,-99.99,,,-99.99,,2013-04-15 06:32:00,
2013-04-14 23:42:00,45.0,45.0,-100.00,WNW,288,2.0,3.0,99,-99.99,,,-99.99,,2013-04-15 06:42:00,
2013-04-14 23:52:00,45.0,45.0,-100.00,SW,228,1.0,2.0,99,-99.99,,,-99.99,,2013-04-15 06:52:00,